LX0WX-13 Weather Reports


time (UTC)temp
F
wind
direction
speed
knots
gust
knots
rain 1hr
in
rain 24hr
in
rain mn
in
humidity
%
barometer
mb
20260507180545 51 0 0.0 0.0 0.00 0.00 0.00 70 1011.4
20260507180045 51 0 0.0 0.0 0.00 0.00 0.00 69 1011.6
20260507175545 51 0 0.0 0.0 0.00 0.00 0.00 69 1011.4
20260507175045 52 0 0.0 0.0 0.00 0.00 0.00 69 1011.2
20260507174545 52 0 0.0 0.0 0.00 0.00 0.00 69 1011.1
20260507174045 52 0 0.0 0.0 0.00 0.00 0.00 69 1011.1
20260507173545 52 0 0.0 0.0 0.00 0.00 0.00 67 1011.2
20260507173045 52 0 0.0 0.0 0.00 0.00 0.00 67 1011.2
20260507172545 52 0 0.0 0.0 0.00 0.00 0.00 66 1011.3
20260507172045 53 0 0.0 1.7 0.00 0.00 0.00 66 1011.3
20260507171545 53 0 0.0 0.0 0.00 0.00 0.00 66 1011.3
20260507171045 53 0 0.0 0.0 0.00 0.00 0.00 66 1011.3
20260507170545 53 0 0.0 1.7 0.00 0.00 0.00 66 1011.1
20260507170045 53 0 0.0 0.0 0.00 0.00 0.00 66 1011.1
20260507165545 53 0 0.0 0.0 0.00 0.00 0.00 66 1011.1
20260507165045 54 0 0.0 1.7 0.00 0.00 0.00 65 1011.2
20260507164546 54 0 0.9 1.7 0.00 0.00 0.00 65 1011.2
20260507164045 54 0 0.0 0.0 0.00 0.00 0.00 64 1011.0
20260507163545 54 0 0.0 0.0 0.00 0.00 0.00 63 1011.1
20260507163045 54 0 0.0 0.0 0.00 0.00 0.00 63 1011.2
20260507162545 54 0 0.0 1.7 0.00 0.00 0.00 63 1011.1
20260507162045 54 0 0.0 0.0 0.00 0.00 0.00 64 1011.2
20260507161545 54 0 0.0 0.0 0.00 0.00 0.00 63 1011.3
20260507161045 54 0 0.0 0.0 0.00 0.00 0.00 64 1011.1
20260507160545 54 0 0.0 0.0 0.00 0.00 0.00 64 1011.1
20260507160045 54 0 0.0 0.0 0.00 0.00 0.00 65 1011.2
20260507155545 54 0 0.0 2.6 0.00 0.00 0.00 66 1011.3
20260507155045 54 202 0.0 0.0 0.00 0.00 0.00 66 1011.3
20260507154545 54 202 0.0 1.7 0.00 0.00 0.00 66 1011.3
20260507154045 54 337 0.9 0.9 0.00 0.00 0.00 67 1011.2
20260507153545 54 0 0.0 0.0 0.00 0.00 0.00 66 1011.1
20260507153045 54 0 0.0 0.0 0.00 0.00 0.00 66 1011.3
20260507152545 54 0 0.0 0.0 0.00 0.00 0.00 66 1011.3
20260507152046 54 0 0.0 0.9 0.00 0.00 0.00 66 1011.3
20260507151546 54 0 0.0 0.9 0.00 0.00 0.00 66 1011.3
20260507151046 54 270 0.0 0.9 0.00 0.00 0.00 66 1011.1
20260507150546 54 157 0.0 0.0 0.00 0.00 0.00 66 1011.2
20260507150046 54 157 0.0 0.0 0.00 0.00 0.00 66 1011.3
20260507145546 54 157 0.0 0.0 0.00 0.00 0.00 66 1011.2
20260507145046 54 157 0.0 0.0 0.00 0.00 0.00 67 1011.0
20260507144546 54 157 0.0 0.9 0.00 0.00 0.00 68 1011.1
20260507144046 54 157 0.9 2.6 0.00 0.00 0.00 68 1011.1
20260507143546 54 157 0.0 2.6 0.00 0.00 0.00 69 1011.1
20260507143046 54 157 0.0 0.0 0.00 0.00 0.00 70 1011.1
20260507142546 54 135 0.0 0.0 0.00 0.00 0.00 70 1011.2
20260507142046 54 90 0.0 0.0 0.00 0.00 0.00 71 1011.3
20260507141546 53 90 0.0 0.0 0.00 0.00 0.00 72 1011.1
20260507141046 53 90 0.0 0.0 0.00 0.00 0.00 72 1011.1
20260507140546 53 90 0.0 0.0 0.00 0.00 0.00 72 1011.2
20260507140046 53 90 0.0 0.0 0.00 0.00 0.00 72 1011.3
20260507135546 52 90 0.0 0.0 0.00 0.00 0.00 71 1011.4
20260507135046 52 90 0.0 0.0 0.00 0.00 0.00 71 1011.3
20260507134546 52 90 0.0 0.0 0.00 0.00 0.00 71 1011.0
20260507134046 52 90 0.0 0.0 0.00 0.00 0.00 71 1011.0
20260507133546 52 90 0.0 0.0 0.00 0.00 0.00 70 1011.2
20260507133046 52 90 0.0 0.0 0.00 0.00 0.00 70 1011.2
20260507132046 52 90 0.0 0.0 0.00 0.00 0.00 69 1011.2
20260507131546 52 90 0.0 0.0 0.00 0.00 0.00 68 1011.2
20260507131046 52 90 0.0 0.0 0.00 0.00 0.00 67 1011.3
20260507130546 52 90 0.0 0.0 0.00 0.00 0.00 66 1011.3
20260507130046 52 90 0.0 0.0 0.00 0.00 0.00 64 1011.3
20260507125546 52 90 0.0 0.0 0.00 0.00 0.00 64 1011.3
20260507125046 53 90 0.0 0.9 0.00 0.00 0.00 64 1011.3
20260507124546 53 90 0.0 0.0 0.00 0.00 0.00 63 1011.1
20260507124046 53 90 0.0 2.6 0.00 0.00 0.00 63 1011.1
20260507123546 53 22 0.0 2.6 0.00 0.00 0.00 62 1011.2
20260507123046 54 45 0.0 1.7 0.00 0.00 0.00 61 1011.1
20260507122546 54 112 0.0 2.6 0.00 0.00 0.00 60 1011.1
20260507122046 55 0 0.0 1.7 0.00 0.00 0.00 60 1011.0
20260507121546 55 0 0.0 2.6 0.00 0.00 0.00 59 1010.9
20260507121046 55 315 0.0 7.0 0.00 0.00 0.00 58 1010.9
20260507120546 56 0 1.7 4.3 0.00 0.00 0.00 60 1011.0
20260507120046 56 67 0.0 0.9 0.00 0.00 0.00 60 1010.9
20260507115546 56 0 0.0 1.7 0.00 0.00 0.00 59 1010.9
20260507115046 56 0 0.0 3.5 0.00 0.00 0.00 60 1011.0
20260507114546 56 22 1.7 4.3 0.00 0.00 0.00 60 1010.9
20260507114046 56 0 0.0 1.7 0.00 0.00 0.00 63 1010.9
20260507113546 55 0 0.0 2.6 0.00 0.00 0.00 63 1010.8
20260507113046 55 0 1.7 2.6 0.00 0.00 0.00 64 1010.9
20260507112546 54 0 0.9 1.7 0.00 0.00 0.00 64 1010.8
20260507112046 54 22 0.0 1.7 0.00 0.00 0.00 66 1010.9
20260507111546 53 112 0.0 0.0 0.00 0.00 0.00 67 1010.8
20260507111046 52 112 0.0 1.7 0.00 0.00 0.00 68 1011.0
20260507110546 52 112 1.7 1.7 0.00 0.00 0.00 68 1010.7
20260507110046 52 67 0.9 0.9 0.00 0.00 0.00 69 1010.9
20260507105546 51 67 0.0 0.0 0.00 0.00 0.00 69 1010.8
20260507105046 51 67 0.0 0.0 0.00 0.00 0.00 68 1010.9
20260507104546 51 67 0.0 0.0 0.00 0.00 0.00 67 1010.9
20260507104046 52 67 0.0 1.7 0.00 0.00 0.00 67 1010.9
20260507103546 52 67 0.0 2.6 0.00 0.00 0.00 66 1010.9
20260507103046 53 22 0.0 2.6 0.00 0.00 0.00 66 1010.8
20260507102546 53 135 0.9 1.7 0.00 0.00 0.00 68 1010.7
20260507102046 52 112 0.0 2.6 0.00 0.00 0.00 69 1010.6
20260507101546 52 90 0.0 1.7 0.00 0.00 0.00 70 1010.8
20260507101046 51 67 1.7 1.7 0.00 0.00 0.00 69 1010.6
20260507100546 51 22 0.0 3.5 0.00 0.00 0.00 68 1010.8
20260507100046 51 0 1.7 4.3 0.00 0.00 0.00 67 1010.8
20260507095546 52 0 3.5 4.3 0.00 0.00 0.00 66 1010.5
20260507095046 52 0 3.5 5.2 0.00 0.00 0.00 65 1010.7
20260507094546 53 337 5.2 5.2 0.00 0.00 0.00 66 1010.6
20260507094046 53 22 4.3 4.3 0.00 0.00 0.00 68 1010.4
20260507093546 52 0 1.7 5.2 0.00 0.00 0.00 68 1010.5
20260507093046 52 0 1.7 6.1 0.00 0.00 0.00 69 1010.4
20260507092546 52 337 6.1 6.1 0.00 0.00 0.00 69 1010.4
20260507092046 52 337 3.5 7.8 0.00 0.00 0.00 69 1010.2
20260507091546 51 0 2.6 5.2 0.00 0.00 0.00 69 1010.3
20260507091046 52 0 2.6 6.1 0.00 0.00 0.00 70 1010.3
20260507090546 51 0 2.6 6.1 0.00 0.00 0.00 70 1010.1
20260507090046 51 22 0.0 5.2 0.00 0.00 0.00 69 1010.2
20260507085546 52 337 4.3 6.1 0.00 0.00 0.00 69 1010.0
20260507085046 52 22 3.5 6.1 0.00 0.00 0.00 71 1010.0
20260507084546 52 0 1.7 7.0 0.00 0.00 0.00 72 1009.8
20260507084046 51 0 5.2 7.0 0.00 0.00 0.00 73 1009.9
20260507083546 50 0 6.1 7.0 0.00 0.00 0.00 74 1009.9
20260507083047 50 0 3.5 10.4 0.00 0.00 0.00 74 1009.7
20260507082546 50 337 8.7 8.7 0.00 0.00 0.00 74 1009.9
20260507082046 50 0 6.1 10.4 0.00 0.00 0.00 74 1009.9
20260507081546 50 22 5.2 8.7 0.00 0.00 0.00 75 1009.8
20260507081046 50 0 7.0 8.7 0.00 0.00 0.00 76 1009.7
20260507080546 49 337 6.1 10.4 0.00 0.00 0.00 77 1009.7
20260507080046 48 0 7.8 8.7 0.00 0.00 0.00 79 1009.7
20260507075546 48 337 8.7 14.8 0.00 0.00 0.00 79 1009.5
20260507075046 48 337 8.7 14.8 0.00 0.00 0.00 80 1009.6
20260507074547 47 0 7.8 12.2 0.00 0.00 0.00 82 1009.5
20260507074047 47 337 9.6 10.4 0.00 0.00 0.00 83 1009.4
20260507073547 47 337 7.0 7.8 0.00 0.00 0.00 85 1009.4
20260507073047 46 0 6.1 9.6 0.00 0.00 0.00 86 1009.4
20260507072547 46 337 9.6 12.2 0.00 0.00 0.00 87 1009.3
20260507072047 45 337 7.0 7.0 0.00 0.00 0.00 88 1009.3
20260507071547 45 337 7.8 10.4 0.00 0.00 0.00 88 1009.2
20260507071047 44 337 5.2 10.4 0.00 0.00 0.00 89 1009.1
20260507070547 44 337 8.7 11.3 0.00 0.00 0.00 89 1009.1
20260507070047 44 0 7.8 13.9 0.00 0.00 0.00 89 1009.1
20260507065547 44 337 8.7 8.7 0.00 0.00 0.00 90 1009.0
20260507065047 43 337 7.8 9.6 0.00 0.00 0.00 90 1009.2
20260507064547 43 337 8.7 10.4 0.00 0.00 0.00 91 1009.2
20260507064047 43 337 8.7 10.4 0.00 0.00 0.00 91 1009.1
20260507063547 43 0 7.0 9.6 0.00 0.00 0.00 92 1009.0
20260507063047 43 337 6.1 8.7 0.00 0.00 0.00 93 1009.2
20260507062547 43 337 7.8 9.6 0.00 0.00 0.00 93 1009.1
20260507062047 42 337 6.1 10.4 0.00 0.00 0.00 93 1009.0
20260507061547 42 0 3.5 6.1 0.00 0.00 0.00 96 1009.0
20260507061047 42 337 5.2 7.8 0.00 0.00 0.00 96 1009.0
20260507060547 42 0 6.1 7.8 0.00 0.02 0.00 96 1009.0
20260507060047 42 337 5.2 7.0 0.00 0.02 0.00 96 1009.0
20260507055547 42 337 7.0 9.6 0.00 0.02 0.00 96 1008.8
20260507055047 42 0 8.7 8.7 0.00 0.02 0.00 96 1008.8
20260507054547 42 0 5.2 8.7 0.00 0.02 0.00 96 1008.6
20260507054047 42 337 4.3 9.6 0.00 0.02 0.00 96 1008.8
20260507053547 41 0 4.3 7.0 0.00 0.02 0.00 96 1008.7
20260507053047 41 0 6.1 7.8 0.00 0.02 0.00 96 1008.6
20260507052547 41 0 2.6 7.8 0.00 0.02 0.00 96 1008.5
20260507052047 41 0 5.2 8.7 0.00 0.02 0.00 96 1008.5
20260507051547 41 337 6.1 8.7 0.00 0.02 0.00 96 1008.3
20260507051047 41 337 6.1 8.7 0.00 0.02 0.00 96 1008.2
20260507050547 41 337 8.7 8.7 0.00 0.04 0.00 96 1008.1
20260507050047 41 0 5.2 8.7 0.00 0.04 0.00 96 1008.0
20260507045547 41 0 5.2 8.7 0.00 0.04 0.00 96 1008.0
20260507045047 41 0 7.0 8.7 0.00 0.04 0.00 96 1007.9
20260507044547 41 0 5.2 7.0 0.00 0.04 0.00 96 1008.0
20260507044047 41 0 5.2 8.7 0.00 0.04 0.00 96 1007.8
20260507043547 41 337 7.0 8.7 0.00 0.04 0.00 96 1008.0
20260507043047 41 0 6.1 7.0 0.00 0.04 0.00 96 1008.0
20260507042547 41 337 6.1 7.0 0.00 0.04 0.00 96 1007.9
20260507042047 41 337 4.3 7.8 0.00 0.04 0.00 96 1007.9
20260507041547 41 337 7.8 7.8 0.00 0.04 0.00 96 1007.9
20260507041047 41 337 7.0 8.7 0.00 0.04 0.00 96 1007.7
20260507040547 41 337 5.2 7.8 0.00 0.04 0.00 96 1007.7
20260507040047 41 0 3.5 6.1 0.00 0.04 0.00 96 1007.7
20260507035547 41 337 5.2 6.1 0.00 0.04 0.00 96 1007.6
20260507035047 41 337 5.2 7.8 0.00 0.04 0.00 96 1007.5
20260507034548 41 0 4.3 7.8 0.00 0.04 0.00 96 1007.6
20260507034047 41 0 3.5 5.2 0.00 0.04 0.00 96 1007.6
20260507033547 41 0 2.6 6.1 0.00 0.04 0.00 96 1007.5
20260507033047 41 337 5.2 7.8 0.00 0.04 0.00 96 1007.5
20260507032547 41 337 5.2 6.1 0.00 0.04 0.00 96 1007.3
20260507032047 41 337 3.5 7.8 0.00 0.04 0.00 96 1007.6
20260507031547 41 315 4.3 7.0 0.00 0.04 0.00 96 1007.5
20260507031047 41 0 4.3 7.0 0.00 0.04 0.00 96 1007.4
20260507030547 41 0 3.5 6.1 0.00 0.06 0.00 96 1007.4
20260507030047 41 337 3.5 7.0 0.00 0.06 0.00 96 1007.3
20260507025547 41 0 4.3 5.2 0.00 0.06 0.00 96 1007.2
20260507025047 41 337 4.3 7.0 0.00 0.06 0.00 96 1007.2
20260507024547 41 337 2.6 6.1 0.00 0.06 0.00 96 1007.2
20260507024047 41 337 2.6 5.2 0.00 0.06 0.00 96 1007.3
20260507023547 41 0 5.2 5.2 0.00 0.06 0.00 96 1007.3
20260507023047 41 337 3.5 7.0 0.00 0.06 0.00 96 1007.2
20260507022547 41 0 5.2 6.1 0.00 0.06 0.00 96 1007.2
20260507022047 41 337 4.3 6.1 0.00 0.06 0.00 96 1007.2
20260507021547 41 337 2.6 6.1 0.00 0.06 0.00 96 1007.2
20260507021047 41 337 5.2 6.1 0.00 0.06 0.00 96 1007.1
20260507020547 41 337 3.5 7.0 0.00 0.06 0.00 96 1007.1
20260507020047 42 0 5.2 7.0 0.00 0.06 0.00 96 1007.1
20260507015547 41 337 4.3 6.1 0.00 0.06 0.00 96 1007.1
20260507015047 41 337 2.6 5.2 0.00 0.06 0.00 96 1007.0
20260507014547 42 337 5.2 7.0 0.00 0.06 0.00 96 1007.0
20260507014047 41 337 3.5 7.0 0.00 0.06 0.00 96 1007.0
20260507013547 42 337 3.5 5.2 0.00 0.06 0.00 96 1007.0
20260507013047 42 315 3.5 6.1 0.00 0.06 0.00 96 1007.0
20260507012547 42 337 5.2 7.0 0.00 0.06 0.00 96 1007.0
20260507012048 42 337 6.1 7.0 0.00 0.06 0.00 96 1007.1
20260507011547 42 337 5.2 7.0 0.00 0.06 0.00 96 1007.0
20260507011047 42 337 4.3 6.1 0.00 0.06 0.00 96 1007.0
20260507010547 42 337 2.6 7.8 0.00 0.08 0.00 96 1007.0
20260507010047 42 315 3.5 5.2 0.00 0.08 0.00 96 1006.7
20260507005547 42 337 1.7 6.1 0.00 0.08 0.00 96 1006.9
20260507005047 42 315 3.5 5.2 0.00 0.08 0.00 96 1006.7
20260507004547 42 337 5.2 5.2 0.00 0.08 0.00 96 1006.8
20260507004047 42 315 5.2 5.2 0.00 0.08 0.00 96 1006.8
20260507003547 42 337 1.7 4.3 0.00 0.08 0.00 96 1006.6
20260507003047 42 337 3.5 5.2 0.00 0.08 0.00 96 1006.6
20260507002547 42 337 2.6 5.2 0.00 0.08 0.00 96 1006.7
20260507002048 42 337 3.5 4.3 0.00 0.08 0.00 93 1006.6
20260507001548 42 0 1.7 4.3 0.00 0.08 0.00 96 1006.6
20260507001048 42 337 1.7 7.0 0.00 0.08 0.00 96 1006.5
20260507000548 42 337 6.1 7.8 0.00 0.20 0.00 93 1006.5
20260507000048 42 337 5.2 7.0 0.00 0.20 0.00 93 1006.4
20260506235548 42 337 4.3 7.0 0.00 0.20 0.00 93 1006.6
20260506235048 42 0 6.1 7.8 0.00 0.20 0.00 93 1006.4
20260506234548 42 0 4.3 6.1 0.00 0.20 0.00 93 1006.5
20260506234048 42 337 4.3 6.1 0.00 0.20 0.00 93 1006.5
20260506233548 42 0 5.2 6.1 0.00 0.20 0.00 93 1006.6
20260506233048 42 337 6.1 6.1 0.00 0.20 0.00 93 1006.5
20260506232548 42 0 2.6 6.1 0.00 0.20 0.00 93 1006.6
20260506232048 42 337 4.3 5.2 0.00 0.20 0.00 93 1006.6
20260506231548 42 0 3.5 7.0 0.00 0.20 0.00 93 1006.6
20260506231048 42 337 5.2 7.0 0.00 0.20 0.00 92 1006.6
20260506230548 42 0 6.1 7.8 0.00 0.22 0.00 92 1006.3
20260506230048 42 337 7.0 8.7 0.00 0.22 0.00 92 1006.4
20260506225548 42 337 7.0 8.7 0.00 0.22 0.00 92 1006.6
20260506225048 42 0 2.6 7.8 0.00 0.22 0.00 92 1006.4
20260506224548 42 0 7.8 7.8 0.00 0.22 0.00 92 1006.4
20260506224048 42 0 5.2 7.8 0.00 0.22 0.00 92 1006.5
20260506223548 42 0 3.5 5.2 0.00 0.22 0.00 92 1006.6
20260506223048 42 0 4.3 7.0 0.00 0.22 0.00 92 1006.4
20260506222548 42 0 6.1 7.8 0.00 0.22 0.00 92 1006.3
20260506222048 42 337 7.8 7.8 0.00 0.22 0.00 92 1006.4
20260506221548 42 337 7.0 7.0 0.00 0.22 0.00 92 1006.2
20260506221048 42 337 3.5 6.1 0.00 0.22 0.00 92 1006.4
20260506220548 42 337 3.5 6.1 0.00 0.22 0.00 92 1006.1
20260506220048 42 337 4.3 8.7 0.00 0.22 0.00 92 1006.0
20260506215548 42 337 7.0 7.8 0.00 0.22 0.00 92 1006.0
20260506215048 42 337 7.0 8.7 0.00 0.22 0.00 92 1006.0
20260506214548 42 337 4.3 7.0 0.00 0.22 0.00 92 1005.8
20260506214048 42 337 5.2 8.7 0.00 0.22 0.00 92 1005.7
20260506213548 42 0 4.3 7.8 0.00 0.22 0.00 91 1005.8
20260506213048 42 0 7.8 8.7 0.00 0.22 0.00 91 1005.6
20260506212548 42 0 6.1 10.4 0.00 0.22 0.00 91 1005.5
20260506212048 42 315 6.1 8.7 0.00 0.22 0.00 91 1005.5
20260506211548 42 337 8.7 10.4 0.00 0.22 0.00 91 1005.3
20260506211048 42 0 8.7 9.6 0.00 0.22 0.00 91 1005.3
20260506210548 42 337 8.7 11.3 0.00 0.26 0.00 91 1005.4
20260506210048 42 337 13.0 13.0 0.00 0.26 0.00 91 1005.4
20260506205548 42 337 10.4 11.3 0.00 0.26 0.00 91 1005.6
20260506205048 42 0 10.4 13.9 0.00 0.26 0.00 91 1005.4
20260506204548 42 0 9.6 13.0 0.00 0.26 0.00 91 1005.5
20260506204048 42 0 10.4 12.2 0.00 0.26 0.00 91 1005.5
20260506203548 43 337 12.2 12.2 0.00 0.26 0.00 90 1005.4
20260506203048 43 0 7.8 7.8 0.00 0.26 0.00 90 1005.5
20260506202548 43 0 7.0 7.0 0.00 0.26 0.00 90 1005.6
20260506202048 43 0 5.2 7.0 0.00 0.26 0.00 90 1005.6
20260506201548 43 0 5.2 8.7 0.00 0.26 0.00 90 1005.5
20260506201048 43 337 8.7 9.6 0.00 0.26 0.00 90 1005.4
20260506200548 43 0 6.1 8.7 0.00 0.26 0.00 90 1005.3
20260506200048 43 22 7.8 10.4 0.00 0.26 0.00 90 1005.3
20260506195548 43 337 5.2 7.8 0.00 0.26 0.00 89 1005.3
20260506195048 43 0 6.1 9.6 0.00 0.26 0.00 90 1005.2
20260506194548 43 0 8.7 9.6 0.00 0.26 0.00 89 1005.1
20260506194048 43 0 7.8 10.4 0.00 0.26 0.00 89 1005.0
20260506193548 43 0 5.2 10.4 0.00 0.26 0.00 89 1005.0
20260506193048 43 337 7.8 10.4 0.00 0.26 0.00 89 1004.9
20260506192548 43 337 7.0 9.6 0.00 0.26 0.00 89 1004.9
20260506192048 43 337 5.2 8.7 0.00 0.26 0.00 89 1004.8
20260506191548 43 0 4.3 7.8 0.00 0.26 0.00 88 1004.9
20260506191048 43 0 4.3 10.4 0.00 0.26 0.00 88 1004.6
20260506190548 44 0 7.8 11.3 0.00 0.30 0.00 88 1004.5
20260506190048 44 337 7.0 10.4 0.00 0.30 0.00 88 1004.4
20260506185548 44 337 6.1 10.4 0.00 0.30 0.00 88 1004.3
20260506185048 44 337 9.6 10.4 0.00 0.30 0.00 87 1004.2
20260506184548 44 337 7.8 13.0 0.00 0.30 0.00 87 1004.2
20260506184048 44 0 6.1 15.6 0.00 0.30 0.00 87 1004.1
20260506183548 44 337 7.8 12.2 0.00 0.30 0.00 87 1004.1
20260506183048 44 0 12.2 13.0 0.00 0.30 0.00 87 1004.0
20260506182548 44 0 7.8 13.0 0.00 0.30 0.00 86 1003.9
20260506182048 44 337 11.3 12.2 0.00 0.30 0.00 86 1004.0
20260506181548 44 337 7.8 13.0 0.00 0.30 0.00 86 1003.8
20260506181048 45 337 13.0 13.0 0.00 0.30 0.00 86 1004.0